Location: �chenoz-la-M�line
(47.6009°N, 6.1354°E)
Time: 23:16:28
(UTC+00:00)

STARLINK-2097 - Pass Details

Date: 12 May 2021
Orbit: 546 x 548 km, 53.1° (Epoch: 16 June)

Event Time Altitude Azimuth Distance (km) Brightness Sun altitude
Rises 19:41:27 0° 297° (WNW) 2,716 9.4 -6.3°
Reaches altitude 10° 19:43:41 10° 298° (WNW) 1,821 8.0 -6.6°
Maximum altitude 19:47:50 82° 25° (NNE) 557 3.7 -7.2°
Drops below altitude 10° 19:51:58 10° 115° (ESE) 1,815 5.6 -7.8°
Enters shadow 19:52:05 - 115° (ESE) 1,859 5.7 -7.8°
